Location: Northern Prairie Star Party
(53.2167°N, 112.5333°W)
Time: 23:49:07
(UTC-06:00)

Daily predictions for brighter satellites

Satellite Brightness Start Highest point End
(mag) Time Altitude Azimuth Time Altitude Azimuth Time Altitude Azimuth
COSMOS 2455 2.9 22:22:43 10° SSW 22:28:43 80° SE 22:34:47 10° NE
CZ-4B R/B 3.7 22:26:15 10° NNE 22:31:17 58° ESE 22:36:24 10° S
Cosmos 1766 3.3 22:29:38 10° N 22:33:40 75° E 22:37:41 10° SSE
Cosmos 2369 Rocket 3.2 22:28:31 10° NW 22:33:52 43° WSW 22:39:09 10° S
Cosmos 1825 Rocket 3.6 22:35:19 10° S 22:39:47 90° ENE 22:44:13 10° N
Cosmos 1758 3.9 22:35:49 10° N 22:39:49 47° ENE 22:43:48 10° SSE
CZ-4 R/B 4.2 22:36:51 10° NNE 22:41:44 52° E 22:46:38 10° S
Cosmos 1190 Rocket 4.1 22:37:16 10° SSW 22:42:33 70° ESE 22:47:52 10° NNE
Landsat 7 4.0 22:37:52 10° SSE 22:42:35 65° ENE 22:47:20 10° N
Cosmos 1570 Rocket 4.2 22:37:41 10° NNW 22:43:04 68° ENE 22:48:24 10° SE
YAOGAN 6 3.3 22:42:19 10° S 22:46:00 54° W 22:49:42 10° NNW
DELTA 2 DEB (DPAF) 4.2 22:43:47 10° SSE 22:48:17 84° ENE 22:52:49 10° NNW
Cosmos 1842 Rocket 4.3 22:44:09 10° N 22:48:18 40° ENE 22:52:28 10° SE
H-2A R/B 2.2 22:45:48 10° SSE 22:50:45 62° ENE 22:55:51 10° N
SL-16 R/B 4.5 22:47:08 10° W 22:52:07 30° NW 22:57:06 10° NNE
Cosmos 1140 Rocket 4.4 22:48:07 10° SSE 22:52:39 30° ESE 22:57:12 10° NE
IGS 5A 3.9 22:49:17 10° SE 22:53:19 51° ENE 22:57:22 10° N
NOAA 11 4.3 22:48:28 10° SSE 22:53:53 78° WSW 22:59:21 10° NNW
Cosmos 1544 4.2 22:51:41 10° N 22:55:08 32° ENE 22:58:27 11° SE
Spot 4 4.2 22:51:13 10° SE 22:55:51 53° ENE 23:00:32 10° N
Cosmos 2084 4.1 22:53:18 10° WNW 22:57:11 43° SW 23:01:12 10° SSE
SPOT 5 4.4 22:53:52 10° SSW 22:57:36 28° W 23:01:22 10° NW
UNK 4.4 22:52:15 10° NNE 22:57:40 81° WNW 23:03:21 10° SSW
Terra 2.0 22:53:41 10° SSE 22:58:24 66° ENE 23:03:08 10° N
Lacrosse 4 Rocket 1.3 22:55:16 10° SSW 22:59:18 68° ESE 23:03:26 10° NE
ATLAS 3B R/B 3.0 22:51:46 10° SSW 22:59:21 66° SE 23:06:42 10° NE
Cosmos 676 Rocket 4.1 22:54:38 10° S 22:59:53 61° ESE 23:05:08 10° NNE
SPOT 1/Viking Rocket 4.2 22:55:00 10° S 23:00:02 53° W 23:05:05 10° NNW
Cosmos 1470 4.0 22:56:33 10° N 23:00:02 30° ENE 23:03:22 11° SE
SAR-Lupe-2 3.6 22:57:57 10° SSE 23:01:27 73° ENE 23:05:03 10° NNW
Cosmos 1805 3.4 22:57:38 10° N 23:01:36 66° ENE 23:05:21 11° SSE
Aureole 2 4.2 23:04:32 10° NNW 23:07:37 64° ENE 23:10:04 14° SE
Lacrosse 5 2.4 23:02:36 10° WNW 23:07:38 60° N 23:12:39 10° E
USA 234 3.9 23:09:10 11° SSE 23:15:11 43° SW 23:21:24 10° WNW
CZ-4C R/B 4.1 23:14:51 10° S 23:18:52 50° W 23:22:42 10° NNW
Cosmos 2221 3.7 23:17:12 10° N 23:21:07 32° ENE 23:24:32 12° SE
DMSP B5D2-2 4.4 23:16:11 10° NNE 23:21:21 50° E 23:26:18 11° S
Cosmos 1697 Rocket 4.5 23:16:58 10° NNW 23:21:41 26° NE 23:26:22 10° E
COSMOS 2406 3.6 23:16:40 10° S 23:22:04 45° ESE 23:27:31 10° NE
SL-27 R/B 2.4 23:19:22 10° S 23:22:40 60° ESE 23:26:00 10° NNE
Cosmos-2242 3.6 23:19:39 10° NNW 23:24:00 56° W 23:28:18 10° S
Nadezhda 4 Rocket 4.2 23:19:32 10° S 23:25:46 63° E 23:32:01 10° NNE
Cosmos 1943 Rocket 3.1 23:21:35 10° NW 23:26:45 41° WSW 23:31:55 10° S
Cosmos 407 Rocket 3.8 23:22:04 10° SW 23:27:19 70° WNW 23:32:32 10° NNE
Cosmos 1953 2.8 23:24:22 10° NNW 23:28:18 56° W 23:32:04 11° S
COSMOS 2487 3.8 23:28:09 16° SSE 23:30:10 25° ESE 23:33:11 10° NE
Cosmos 1900 4.4 23:25:26 10° SW 23:30:36 89° SE 23:35:46 10° NE
Lacrosse 5 rocket 2.3 23:29:41 10° WNW 23:33:39 50° N 23:37:50 10° E
Cosmos 1656 Rocket 3.9 23:29:55 10° NW 23:35:34 65° WSW 23:40:20 14° SSE
Spot 2 4.4 23:33:10 10° NNE 23:37:58 68° ESE 23:42:49 11° S
Cosmos 1707 3.9 23:36:52 16° SE 23:39:18 30° E 23:42:45 10° NNE
Cosmos 1943 4.1 23:35:45 10° SW 23:41:18 52° NW 23:46:54 10° NNE
Cosmos 1818 3.7 23:35:59 10° NW 23:41:32 81° NE 23:46:24 13° SE
USA 238 DEB 3.8 23:37:37 10° SSW 23:44:32 58° SE 23:51:26 10° NE
USA 238 3.9 23:37:44 10° SSW 23:44:38 58° SE 23:51:31 10° NE
CZ-4B R/B 3.5 23:44:45 10° ESE 23:47:36 22° ENE 23:50:30 10° N
Cosmos 1954 Rocket 4.2 23:43:01 10° SSW 23:48:20 77° WNW 23:53:40 10° NNE
Cosmos 1842 4.3 23:47:03 10° SSW 23:50:50 45° WNW 23:54:38 10° N
Cosmos 1607 4.1 23:47:19 10° SSW 23:53:21 53° ESE 23:59:22 10° NE
Cosmos 1689 Rocket 4.3 23:51:43 11° ESE 23:53:57 20° ENE 23:56:24 10° NNE
